Regional Weather Roundup
Issued by NWS Kansas City/Pleasant Hill, MO

Home | Current Version | Previous Version | Text Only | Print | Product List | Glossary On
Versions: 1 2 3 4 5 6 7 8 9 10 11 12 13 14 15 16 17 18 19 20 21 22 23 24 25 26 27 28 29 30 31 32 33 34 35 36 37 38 39 40 41 42 43 44 45 46 47 48 49 50
000
ASUS43 KEAX 282110
RWREAX

WEATHER ROUNDUP FOR EASTERN KANSAS AND NORTHWEST MISSOURI
NATIONAL WEATHER SERVICE KANSAS CITY/PLEASANT HILL MO
400 PM CDT SUN AUG 28 2016

KSZ040-057-103>105-MOZ028-029-037-043-282200-
...KANSAS CITY METROPOLITAN AREA...

CITY           SKY/WX    TMP DP  RH WIND       PRES   REMARKS
K.C. INTL      PTSUNNY   89  69  51 SE9       30.08F HX  93
K.C. DOWNTOWN  MOSUNNY   90  70  51 SE9       30.05F HX  95
LEES SUMMIT    MOSUNNY   88  71  57 VRB7      30.08F HX  94
OLATHE - IXD   SUNNY     89  70  53 S8        30.08F HX  94
OLATHE - OJC   MOSUNNY   87  70  56 SE9       30.08F HX  92
LAWRENCE       SUNNY     88  72  58 SE10      30.06F HX  94

$$

MOZ001>008-011>017-020>025-030>033-038>040-044>046-053-054-282200-
...NORTHERN AND CENTRAL MISSOURI...

CITY           SKY/WX    TMP DP  RH WIND       PRES   REMARKS
ST. JOSEPH     PTSUNNY   77  72  84 N10       30.09S
MOSBY          PTCLDY    88  70  55 SE7       30.08S HX  92
WHITEMAN AFB   PTSUNNY   89  73  60 S3        30.07F HX  96
CLINTON        SUNNY     90  73  58 SE3       30.07F HX  98
SEDALIA        PTSUNNY   87  73  62 E3        30.09F HX  94
WARSAW         NOT AVBL
CHILLICOTHE    NOT AVBL
KIRKSVILLE     CLOUDY    86  69  56 SE12      30.12F HX  90

$$

MOZ041-047>049-056>058-063>065-088>090-097-282200-
...EASTERN AND SOUTHERN MISSOURI...

CITY           SKY/WX    TMP DP  RH WIND       PRES   REMARKS
ST. LOUIS INTL MOSUNNY   95  67  39 VRB5      30.10F HX  99
SPIRIT OF STL  MOSUNNY   92  71  50 VRB5      30.08F HX  98
COLUMBIA       SUNNY     89  71  55 S8        30.10F HX  95
JEFFERSON CITY SUNNY     90  69  50 E8        30.08F HX  94
ROLLA          SUNNY     88  69  53 S5        30.10F HX  92
OSAGE BEACH    PTSUNNY   89  71  55 VRB6      30.09F HX  95
SPRINGFIELD    MOSUNNY   88  65  46 SE8       30.08F HX  90
BRANSON        PTSUNNY   88  70  55 E6        30.11F HX  92
JOPLIN         SUNNY     89  67  47 VRB6      30.06F HX  92
WEST PLAINS    SUNNY     89  67  47 E6        30.12F HX  92

$$

IAZ060-094-KSZ022-034>040-054-083-096-NEZ052-066-093-282200-
...KANSAS...SOUTHEAST NEBRASKA AND IOWA...

CITY           SKY/WX    TMP DP  RH WIND       PRES   REMARKS
TOPEKA         MOSUNNY   89  71  55 SE12      30.05F HX  95
MANHATTAN      MOSUNNY   88  72  58 S15G21    30.04F HX  94
EMPORIA        MOSUNNY   85  72  65 S7        30.07F HX  91
CHANUTE        PTSUNNY   89  70  53 SE7       30.06F HX  94
WICHITA        PTSUNNY   88  72  58 SE12      30.04F HX  94
OMAHA          CLOUDY    89  71  55 S16       30.04F HX  95
LINCOLN        MOSUNNY   88  66  48 SE12      30.06F HX  90
FALLS CITY     TSTM      73  69  87 SE9       30.08F
LAMONI         CLOUDY    81  74  79 S3        30.12R
DES MOINES     CLOUDY    87  72  60 S8        30.08S HX  93

$$




USA.gov is the U.S. government's official web portal to all federal, state and local government web resources and services.